Weather in Shtepivka

Ukraine / Sumi District     50°47′45″N   34°20′30″E
temp.,
°C
wind,
m/s
gust,
m/s
humid.,
%
clouds,
%
prec.,
mm/h
press.,
hPa
HPBL,
m
27 october, wed
wed2700:00+2ssw4116312 0.0 1028204
03:00+1ssw4116629 0.0 1028193
06:00+1ssw512695 0.0 1026238
09:00+3ssw513660 0.0 1026368
12:00+8sw7106520 0.0 1025763
15:00+10wsw686146 0.0 10231096
18:00+6wsw357893 0.0 102381
21:00+6w34755 0.0 102371
28 october, thu
thu2800:00+4w348230 0.0 102453
03:00+4w3588100 0.0 102381
06:00+4wsw3892100 0.0 1023147
09:00+6sw51184100 0.3 1022320
12:00+9wsw61173100 0.0 1021541
15:00+10wnw51179100 0.0 1020597
18:00+9wnw4984100 0.1 1021398
21:00+9nw41092100 0.1 1023418
29 october, fri
fri2900:00+7nw36950 0.0 1024119
03:00+6n36978 0.0 1025115
06:00+4nne34915 0.0 102766
09:00+5nne26815 0.0 1028152
12:00+10ene33610 0.0 1029568
15:00+12e23560 0.0 1029868
18:00+8e22740 0.0 103010
21:00+6ese33820 0.0 103130
30 october, sat
sat3000:00+5se34900 0.0 103166
03:00+4se34920 0.0 103251
06:00+4se34930 0.0 103254
09:00+5sse35892 0.0 1033139
12:00+11sse45643 0.0 1033536
15:00+12sse34540 0.0 1031826
18:00+8sse33690 0.0 103228
21:00+7sse33740 0.0 103238
31 october, sun
sun3100:00+5sse33750 0.0 103238
03:00+5sse33780 0.0 103229
05:00+4se33820 0.0 103234
08:00+5se36800 0.0 1031148
11:00+11se46590 0.0 1030559
14:00+13se45500 0.0 1028781
17:00+8ese47640 0.0 102798
20:00+6ese49720 0.0 1027143